Location: Gleizolles
(44.4833°N, 6.7667°E)
Time: 13:20:25
(UTC+00:00)

deb Explorer IX - Pass Details

Date: 01 July 2024
Orbit: 510 x 878 km, 38.7° (Epoch: 21 July)

Event Time Altitude Azimuth Distance (km) Brightness Sun altitude
Rises 07:50:48 0° 266° (W) 2,669 ? 39.5°
Reaches altitude 10° 07:53:11 10° 254° (WSW) 1,816 ? 40.0°
Maximum altitude 07:56:44 27° 195° (SSW) 1,114 ? 40.6°
Drops below altitude 10° 08:00:33 10° 137° (SE) 1,972 ? 41.3°
Sets 08:03:15 0° 126° (SE) 2,950 ? 41.7°
